User: anonymous   Login
Location: Kailua
(21.4020°N, 157.7390°W)
Time: 00:50:10
(UTC-10:00)
Language:

Cosmos 2297 Rocket - Orbit

View from above orbital plane
View from above orbital plane
View from above satellite
View from above satellite

Ground track
Ground track

The orbit data is extracted from the following two-line orbital elements,

1 23405U 94077B   17204.82032795 -.00000278 +00000-0 -11857-3 0  9995
2 23405 070.9839 138.3777 0005079 269.6035 090.4505 14.15200092170443
Epoch (UTC): 23 July 2017 19:41:16
Eccentricity: 0.0005079
inclination: 70.9839°
perigee height: 838 km
apogee height: 845 km
right ascension of ascending node: 138.3777°
argument of perigee: 269.6035°
revolutions per day: 14.15200092
mean anomaly at epoch: 90.4505°
orbit number at epoch: 17044

The dashed part of the orbit path shows where the satellite is in the earth's shadow,  

DLR